This demonstration page uses our WeatherBlox Daily Observations layout. Learn more.

Left ArrowRight Arrow

39.12711, -84.51439

Hourly Observations for October 25, 2016

Temp ( °F °C ) Dew Point ( °F °C ) Humidity (%) Winds ( mph kmh ) Pressure ( in mb ) Visibility ( mi km ) Precip ( " mm )
12:51 am 00:51 Clear with Mist and Fog 43 6 43 6 100 100 Calm 30.39 1029 3 4 0.00 0.00
12:53 am 00:53 Clear with Mist and Fog 41 5 41 5 100 100 Calm 30.38 1029 3 5 0.00 0.00
1:53 am 01:53 Clear 40 4.4 40 4.4 100 100 Calm 30.38 1029 9 14 0.00 0.00
2:53 am 02:53 Clear with Mist and Fog 38 3.3 38 3.3 100 100 Calm 30.38 1029 4 6 0.00 0.00
2:56 am 02:56 Clear with Mist and Fog 37 3 37 3 100 100 Calm 30.42 1030 2 3 0.00 0.00
3:07 am 03:07 Clear with Mist and Fog 39 3.9 39 3.9 100 100 Calm 30.39 1029 3 5 0.00 0.00
3:53 am 03:53 Clear 37 2.8 37 2.8 100 100 Calm 30.38 1029 9 14 0.00 0.00
4:53 am 04:53 Clear 37 2.8 37 2.8 100 100 Calm 30.38 1029 7 11 0.00 0.00
5:48 am 05:48 Mostly Clear with Mist and Fog 37 3 37 3 100 100 NE 3 6 30.42 1030 2 3 0.00 0.00
5:53 am 05:53 Partly Cloudy with Mist and Fog 36 2.2 36 2.2 100 100 Calm 30.39 1029 2 3 0.00 0.00
6:00 am 06:00 Mostly Clear with Mist and Fog 37 3 37 3 100 100 Calm 30.42 1030 2 3 0.00 0.00
6:03 am 06:03 Mostly Cloudy with Mist and Fog 37 3 37 3 100 100 Calm 30.42 1030 1 2 0.00 0.00
6:11 am 06:11 Mostly Cloudy with Fog 38 3.3 38 3.3 100 100 Calm 30.42 1030 1 1 0.00 0.00
6:38 am 06:38 Partly Cloudy with Mist and Fog 36 2 36 2 100 100 E 3 6 30.42 1030 1 2 0.00 0.00
6:41 am 06:41 Mostly Clear with Mist and Fog 36 2.2 36 2.2 100 100 E 3 6 30.42 1030 3 5 0.00 0.00
6:53 am 06:53 Mostly Clear 36 2.2 36 2.2 100 100 Calm 30.41 1030 8 13 0.00 0.00
7:50 am 07:50 Mostly Cloudy with Mist and Fog 36 2 36 2 100 100 NE 3 6 30.45 1031 1 2 0.00 0.00
7:53 am 07:53 Mostly Cloudy with Mist and Fog 36 2.2 36 2.2 100 100 NE 3 6 30.43 1030 1 1 0.00 0.00
7:55 am 07:55 Partly Cloudy with Mist and Fog 35 1.7 35 1.7 100 100 NE 5 7 30.45 1031 3 5 0.00 0.00
8:33 am 08:33 Partly Cloudy with Patchy Fog 37 2.8 37 2.8 100 100 Calm 30.45 1031 6 10 0.00 0.00
8:53 am 08:53 Partly Cloudy with Patchy Fog 38 3.3 38 3.3 100 100 Calm 30.44 1031 6 10 0.00 0.00
9:19 am 09:19 Partly Cloudy 41 5 41 5 100 100 Calm 30.42 1030 10 16 0.00 0.00
9:53 am 09:53 Sunny 43 6.1 43 6.1 100 100 NE 6 9 30.45 1031 10 16 0.00 0.00
10:53 am 10:53 Sunny 48 8.9 43 6.1 83 83 VRB 6 9 30.44 1031 10 16 0.00 0.00
11:53 am 11:53 Sunny 53 11.7 44 6.7 72 72 NNE 5 7 30.44 1031 10 16 0.00 0.00
12:53 pm 12:53 Sunny 56 13.3 44 6.7 65 65 N 6 9 30.43 1031 10 16 0.00 0.00
1:53 pm 13:53 Sunny 58 14.4 44 6.7 60 60 NE 6 9 30.40 1030 10 16 0.00 0.00
2:53 pm 14:53 Sunny 58 14.4 42 5.6 56 56 NE 6 9 30.38 1029 10 16 0.00 0.00
3:53 pm 15:53 Mostly Sunny 59 15 42 5.6 54 54 NE 7 11 30.38 1029 10 16 0.00 0.00
4:53 pm 16:53 Mostly Cloudy 59 15 41 5 51 51 NE 6 9 30.37 1028 10 16 0.00 0.00
5:53 pm 17:53 Partly Cloudy 57 13.9 43 6.1 60 60 ENE 5 7 30.35 1028 10 16 0.00 0.00
6:53 pm 18:53 Partly Cloudy 52 11.1 45 7.2 77 77 NE 8 13 30.36 1028 10 16 0.00 0.00
7:53 pm 19:53 Mostly Cloudy 51 10.6 43 6.1 74 74 NE 6 9 30.38 1029 10 16 0.00 0.00
8:53 pm 20:53 Clear 48 8.9 41 5 77 77 NE 6 9 30.38 1029 10 16 0.00 0.00
9:53 pm 21:53 Clear 45 7.2 41 5 86 86 NNE 6 9 30.38 1029 10 16 0.00 0.00
10:53 pm 22:53 Clear 46 7.8 41 5 83 83 NE 6 9 30.38 1029 10 16 0.00 0.00
11:53 pm 23:53 Partly Cloudy 43 6.1 40 4.4 89 89 Calm 30.38 1029 10 16 0.00 0.00

Powered by AerisWeather